Location: Breitenbruch
(50.2206°N, 7.0945°E)
Time: 00:07:52
(UTC+00:00)

Daily predictions for brighter satellites

Satellite Brightness Start Highest point End
(mag) Time Altitude Azimuth Time Altitude Azimuth Time Altitude Azimuth
SL-16 R/B 3.6 00:12:20 40° NE 00:12:20 40° NE 00:17:15 10° N
Cosmos 1943 Rocket 3.8 00:17:16 29° N 00:17:16 29° N 00:20:27 10° NNE
COSMOS 2455 4.5 00:18:59 27° NNW 00:18:59 27° NNW 00:24:05 10° NNE
CZ-2D R/B 4.1 00:18:10 10° NE 00:20:45 22° ENE 00:20:45 22° ENE
Cosmos 2297 Rocket 3.6 00:24:28 10° NNW 00:28:49 34° NNE 00:28:49 34° NNE
Resurs 1-4 Rocket 3.9 00:32:00 10° NNE 00:34:54 27° NE 00:34:54 27° NE
Cosmos 2369 Rocket 3.7 00:41:05 32° N 00:41:05 32° N 00:44:38 10° NNE
NOSS 3-1 (A) 4.5 00:32:38 10° NW 00:37:40 50° NW 00:37:40 50° NW
CZ-4C R/B 3.8 00:47:10 29° NNW 00:47:50 30° NNW 00:53:39 10° NE
SL-8 Rocket 4.3 01:06:54 10° N 01:12:12 62° NNE 01:12:12 62° NNE
Cosmos 2218 Rocket 4.1 01:18:09 10° N 01:24:06 72° NE 01:24:06 72° NE
Cosmos 2227 Rocket 3.1 01:21:20 10° NNW 01:25:13 44° N 01:25:13 44° N
Cosmos 2366 rocket 4.1 01:20:45 10° N 01:26:34 72° NE 01:26:34 72° NE
Lacrosse 5 4.0 01:32:48 18° ESE 01:32:48 18° ESE 01:35:10 10° E
USA 234 3.3 01:27:06 10° ESE 01:33:36 74° NNE 01:37:44 25° NW
ADEOS II 2.8 01:33:44 10° NNE 01:38:28 48° E 01:38:28 48° E
CZ-4B R/B 4.2 01:36:28 10° NNE 01:40:47 51° ENE 01:40:47 51° ENE
Cosmos 864 Rocket 4.5 01:38:00 10° N 01:43:29 72° NNW 01:43:29 72° NNW
SL-08 R/B 4.2 01:47:13 46° ENE 01:47:13 46° ENE 01:51:27 10° N
Cosmos 2181 Rocket 3.9 01:47:57 77° NNW 01:47:57 77° NNW 01:53:45 10° N
Cosmos 1633 Rocket 4.4 01:45:57 10° N 01:48:58 37° NNE 01:48:58 37° NNE
IDEFIX/ARIANE 42P 4.3 01:47:11 10° NE 01:51:39 27° E 01:53:41 21° SE
Cosmos 1241 Rocket 4.3 01:54:48 86° WNW 01:54:51 86° NW 02:01:20 10° NE
SL-16 R/B 3.6 01:57:26 31° NW 01:57:26 31° NW 02:00:58 10° NNW
Cosmos 1151 Rocket 4.3 02:00:38 37° E 02:00:38 37° E 02:04:25 10° NNE
Cosmos 1943 Rocket 4.5 01:58:47 12° NW 02:00:33 13° NNW 02:03:10 10° N
ARIANE 5 R/B 3.5 01:56:05 10° NNE 02:00:53 39° E 02:01:51 35° ESE
IRS-1D 3.6 01:56:39 10° NNE 02:01:47 79° NE 02:01:47 79° NE
CZ-2D R/B 2.7 01:57:50 10° N 02:02:04 45° NNW 02:02:04 45° NNW
ATLAS 5 CENTAUR R/B 2.5 02:07:56 44° N 02:07:56 44° N 02:11:46 10° NE
NPP 4.1 02:03:52 10° N 02:08:28 51° NW 02:08:28 51° NW
Cosmos 2297 Rocket 3.8 02:08:29 10° NW 02:10:32 22° NW 02:10:32 22° NW
CBERS-1 3.9 02:09:06 10° NNE 02:13:59 79° NNW 02:13:59 79° NNW
Resurs 1-4 Rocket 2.9 02:11:50 10° N 02:15:58 37° NW 02:15:58 37° NW
Cosmos 1933 4.1 02:18:15 52° NE 02:18:15 52° NE 02:21:38 10° NNE
Cosmos 2082 3.6 02:12:36 10° NNW 02:18:20 88° WSW 02:20:23 42° SSE
USA 305 4.3 02:22:42 30° ESE 02:22:42 30° ESE 02:25:48 10° ENE
Cosmos 2369 Rocket 4.4 02:22:52 11° NW 02:25:01 13° NNW 02:27:43 10° N
USA 306 4.2 02:26:37 32° ESE 02:26:37 32° ESE 02:29:54 10° ENE
X-37B 3.6 02:29:08 12° ESE 02:29:08 12° ESE 02:29:25 10° ESE
CZ-2D R/B 4.4 02:23:59 10° NNE 02:28:00 44° E 02:28:45 40° SE
SJ 16-02 3.5 02:24:43 10° N 02:28:26 26° NE 02:32:09 10° ESE
Meteor 1-25 Rocket 4.2 02:24:29 10° NNW 02:30:22 89° E 02:33:01 34° SSE
Gbstr 26 Del rocket 4.5 02:27:26 31° WNW 02:31:49 84° N 02:39:26 10° E
Cosmos 389 Rocket 4.3 02:32:19 25° ESE 02:33:00 27° E 02:36:03 10° NE
Cosmos 1697 Rocket 2.8 02:32:33 50° S 02:33:56 68° ESE 02:39:33 10° NNE
ASTEX 1 4.0 02:29:03 10° NNE 02:33:59 56° E 02:36:22 29° SSE
IRS-P3 4.0 02:29:12 10° NNE 02:34:35 85° WNW 02:35:28 63° SSW
H-2A R/B 3.3 02:33:35 10° SE 02:37:42 42° ENE 02:41:56 10° N
Cosmos 1980 Rocket 3.2 02:35:19 25° SSE 02:38:10 42° ESE 02:43:28 10° NE
CZ-4C R/B 4.4 02:33:06 10° NW 02:38:21 27° N 02:44:25 10° ENE
USA 267 3.2 02:33:29 10° ENE 02:40:04 82° SSE 02:42:17 45° SW
ERS-2 4.5 02:38:10 10° ESE 02:41:11 24° ENE 02:44:12 10° N
Cosmos 1602 3.8 02:39:28 10° N 02:43:13 72° ENE 02:43:13 72° ENE
ERS-1 4.4 02:39:08 10° NNE 02:44:17 88° ESE 02:45:42 50° SSW
NOSS 2-2 (E) 4.4 02:38:55 10° NW 02:44:29 71° SW 02:52:14 10° SSE
Cosmos 2263 Rocket 3.1 02:39:02 10° NNW 02:44:31 48° NE 02:49:59 10° SE
SL-8 R/B 3.6 02:46:01 66° SSW 02:46:02 66° S 02:50:46 10° ESE
Meteor 1-14 Rocket 4.4 02:41:27 10° N 02:47:07 72° ENE 02:52:40 10° SSE
Cosmos 1818 4.0 02:46:11 43° WNW 02:47:10 48° NW 02:52:29 10° NE
ATLAS 2AS CENTAUR R/B 4.1 02:43:26 10° NW 02:50:40 40° NNE 02:57:25 10° E
USA 307 3.3 02:52:25 47° SSE 02:52:45 49° SE 02:56:52 10° ENE
NOSS 2-2 (D) 4.4 02:47:27 10° NW 02:52:54 72° SW 03:00:31 10° SSE
Cosmos 1821 Rocket 4.0 02:47:27 10° NNW 02:53:41 61° W 02:56:30 33° SSW
Cosmos 1470 Rocket 3.4 02:50:42 10° NNW 02:55:07 67° W 02:55:25 65° SW
USA 308 3.3 02:55:23 48° S 02:55:49 51° SE 02:59:59 10° ENE
Spot 4 Rocket 4.0 02:52:00 10° NNE 02:57:12 80° ESE 02:59:44 31° S
Cosmos 1500 4.3 02:56:20 10° N 03:00:05 45° ENE 03:03:46 10° SSE
SL-24 R/B 4.4 02:59:50 50° SW 03:00:35 56° W 03:05:45 10° NNW
Landsat 5 3.7 03:01:11 10° SSE 03:05:42 78° ENE 03:10:12 10° NNW
Cosmos 1934 Rocket 3.8 03:02:42 10° NNW 03:08:46 76° W 03:14:48 10° S
Cosmos 1777 Rocket 4.2 03:04:29 10° NNW 03:09:30 47° WSW 03:12:06 26° SSW
Cosmos 2227 Rocket 4.2 03:06:14 10° NW 03:06:57 13° WNW 03:06:57 13° WNW
Cosmos 1238 Rocket 4.0 03:04:20 10° N 03:11:02 81° W 03:17:17 10° S
Cosmos 1782 2.7 03:10:11 49° SSW 03:11:13 79° W 03:15:17 10° N
Cosmos 1656 4.2 03:12:05 33° W 03:13:40 40° NW 03:18:53 10° NNE
Lacrosse 5 1.8 03:11:59 39° SW 03:13:53 80° SE 03:18:58 10° ENE
ADEOS Rocket 3.7 03:09:42 10° SE 03:16:22 60° ENE 03:22:22 10° N
CZ-4B R/B 3.6 03:13:47 10° SE 03:16:28 26° ENE 03:19:14 10° N
Cosmos 1515 Rocket 3.5 03:15:08 38° SSW 03:16:45 69° WNW 03:21:13 10° N
USA 234 3.4 03:10:35 10° SSE 03:16:52 49° SW 03:23:11 10° WNW
CZ-2C R/B 2.6 03:13:10 10° NNE 03:16:56 86° ESE 03:18:32 34° SSW
ADEOS II 3.0 03:13:51 10° N 03:18:20 30° WNW 03:19:23 27° W
Nadezhda 3 Rocket 4.2 03:18:39 30° SW 03:21:25 49° WNW 03:27:23 10° N
USA 276 2.0 03:21:38 66° SW 03:21:55 73° SSE 03:25:08 10° E
Cosmos 972 Rocket 4.0 03:24:16 33° WSW 03:26:10 53° WNW 03:31:01 10° NNE
CSL-04 DEB 4.5 03:23:04 10° S 03:27:20 66° WSW 03:31:42 10° NNW
Cosmos 44 3.5 03:24:49 23° SSW 03:27:28 59° SE 03:32:04 10° NE
Cosmos 1356 3.4 03:24:12 10° NNW 03:27:35 54° W 03:28:27 40° SSW
MSX 3.8 03:21:55 10° NNE 03:27:44 79° WNW 03:32:39 15° SSW
Timation 1 Rocket 4.5 03:23:15 10° NW 03:29:00 49° WSW 03:34:44 10° S
IRIDIUM 103 4.5 03:23:58 10° N 03:29:13 76° E 03:34:26 10° S
Cosmos 1328 Rocket 4.3 03:28:49 31° W 03:29:33 33° WNW 03:33:37 10° N
Cosmos 921 Rocket 3.4 03:27:48 13° S 03:31:29 58° ESE 03:35:37 10° NNE
IDEFIX/ARIANE 42P 2.8 03:26:24 10° N 03:31:31 52° WNW 03:34:29 24° SW
Cosmos 1605 Rocket 4.0 03:25:09 10° NNW 03:31:33 79° W 03:37:57 10° S
Meteor 1-11 Rocket 4.3 03:25:53 10° N 03:31:43 63° ENE 03:37:21 10° SSE
Cosmos 2278 3.7 03:28:10 23° SW 03:31:50 78° WNW 03:37:35 10° NNE
Cosmos 1933 Rocket 3.9 03:28:19 10° NNW 03:32:25 40° W 03:34:17 26° SW
CZ-3B R/B 2.7 03:32:05 29° W 03:33:46 63° N 03:43:51 10° ENE
Cosmos 2228 Rocket 3.0 03:31:12 14° SSW 03:34:53 84° W 03:39:20 10° N
Cosmos 1151 Rocket 4.1 03:37:30 24° W 03:38:05 25° WNW 03:41:43 10° NNW
Cosmos 2369 4.0 03:36:41 25° WSW 03:39:53 51° NW 03:45:30 10° NNE
ARIANE 5 R/B 3.2 03:35:19 10° N 03:39:56 35° WNW 03:42:10 24° WSW
CZ-2D R/B 4.2 03:40:36 10° NNW 03:41:54 11° NW 03:43:10 10° WNW
Cosmos 1937 Rocket 4.2 03:37:25 10° NNW 03:42:32 57° ENE 03:47:35 10° SE
CZ-4C R/B 3.6 03:42:39 21° SSW 03:44:31 37° W 03:47:53 10° NNW
Cosmos 1733 Rocket 4.4 03:42:21 10° N 03:46:32 42° ENE 03:50:39 10° SE
ALOS 3.9 03:42:20 10° NNE 03:46:38 35° E 03:50:54 10° SSE
IRIDIUM 106 4.2 03:42:18 10° N 03:47:33 78° W 03:52:46 10° S
Cosmos 1536 3.5 03:46:19 10° N 03:50:21 58° ENE 03:54:22 10° SSE
Cosmos 1869 Rocket 3.5 03:47:11 10° NNW 03:51:29 61° W 03:55:45 10° S
ATLAS 5 CENTAUR R/B 3.7 03:49:28 10° WNW 03:52:49 21° NNW 03:56:41 10° NE
Cosmos 1484 Rocket 4.3 03:51:45 10° NNE 03:55:31 40° E 03:59:18 10° SSE
Meteor 1-4 Rocket 2.5 03:53:39 10° S 03:57:07 81° E 04:00:38 10° NNE
USA 305 2.9 03:58:51 20° WSW 04:01:47 77° NNW 04:06:03 10° ENE
X-37B 1.7 04:01:25 20° SW 04:02:52 30° S 04:05:43 10° ESE
Cosmos 1689 Rocket 3.6 04:02:02 10° SE 04:04:49 40° ENE 04:07:39 10° N
USA 306 2.9 04:02:46 18° WSW 04:05:52 75° NNW 04:10:08 10° ENE
Cosmos 2100 Rocket 4.2 03:59:45 10° N 04:06:11 82° E 04:12:34 10° SSE
Meteor 1-31 Rocket 4.1 04:02:40 10° NNE 04:06:19 42° E 04:09:58 10° S
SJ 16-02 1.6 04:03:01 10° NW 04:07:12 43° WSW 04:11:21 10° S
Cosmos 1763 Rocket 4.0 04:02:14 10° S 04:07:30 66° ESE 04:12:47 10° NNE
Cosmos 1727 Rocket 4.0 04:01:14 10° S 04:07:35 83° W 04:13:57 10° N
Cosmos 389 Rocket 3.7 04:06:12 18° WSW 04:07:41 24° WNW 04:10:40 10° NNW
Cosmos 1802 Rocket 4.5 04:02:21 10° N 04:08:30 67° ENE 04:14:42 10° SSE
PSLV R/B 3.6 04:04:45 10° N 04:08:54 56° WNW 04:13:00 10° SSW
Cosmos 2360 Rocket 4.0 04:07:16 10° SSE 04:12:14 32° ESE 04:17:13 10° NE
H-2A R/B 3.1 04:10:13 10° SSW 04:13:50 25° W 04:17:33 10° NW
ERS-2 2.8 04:11:19 10° SSW 04:14:37 31° W 04:17:56 10° NNW
CZ-2C R/B 2.6 04:11:30 10° N 04:16:30 59° WNW 04:21:34 10° SSW
NOSS 3-4 (A) 3.9 04:11:24 10° NW 04:18:19 87° NE 04:26:01 10° SE
Cosmos 1697 Rocket 3.8 04:14:18 13° W 04:18:24 28° NW 04:23:14 10° NNE
NOSS 3-4 (C) 3.9 04:11:30 10° NW 04:18:25 87° NE 04:26:07 10° SE
PAYLOAD A 4.1 04:15:31 10° N 04:20:03 46° WNW 04:24:31 10° SW
Cosmos 1980 Rocket 2.8 04:17:07 11° WSW 04:22:12 41° NW 04:27:34 10° NNE
USA 267 3.7 04:16:34 10° ENE 04:22:56 56° NNW 04:29:18 10° W
FENGYUN 3A 3.9 04:18:46 10° NNE 04:24:11 76° ESE 04:29:35 10° S
SJ-6F 4.4 04:21:42 10° N 04:25:50 70° WNW 04:29:53 10° SSW
Cosmos 990 Rocket 4.3 04:21:55 10° NW 04:26:51 45° WSW 04:31:47 10° S
Meteor 1-10 Rocket 4.5 04:21:39 10° SSW 04:27:17 53° WNW 04:33:03 10° N
Cosmos 2322 Rocket 2.6 04:21:44 10° SSW 04:27:22 71° ESE 04:33:04 10° NNE
Cosmos 1459 Rocket 3.9 04:21:49 10° NNW 04:27:57 78° W 04:33:59 10° S
Cosmos 2263 Rocket 2.8 04:23:15 10° NW 04:28:18 34° WSW 04:33:20 10° S
CZ-4C R/B 3.9 04:22:00 10° NW 04:28:31 47° NNE 04:36:09 10° ESE
NOSS 3-3 (A) 4.0 04:23:19 10° SW 04:29:11 78° NW 04:35:58 10° NE
NOSS 3-3 (C) 4.0 04:23:29 10° SW 04:29:19 79° NW 04:36:03 10° NE
Cosmos 1812 3.6 04:28:35 10° SW 04:31:59 29° WNW 04:35:25 10° N
Cosmos 468 Rocket 4.0 04:26:51 10° SSW 04:32:09 74° WNW 04:37:27 10° NNE
USA 307 3.2 04:28:36 10° W 04:32:47 62° NNW 04:37:01 10° ENE
SL-16 R/B 2.3 04:29:22 10° SSW 04:35:03 87° WNW 04:40:47 10° NNE
Cosmos 1844 Rocket 3.0 04:29:50 10° NNW 04:35:30 73° ENE 04:41:09 10° SE
USA 308 3.2 04:31:39 10° W 04:35:53 61° NNW 04:40:07 10° ENE
COSMO-SKYMED 1 2.7 04:32:03 10° SSE 04:36:23 85° ENE 04:40:46 10° NNW
SL-4 R/B 3.9 04:35:23 10° SSW 04:39:33 33° SE 04:43:51 10° E
Cosmos 540 Rocket 4.0 04:35:38 10° S 04:40:45 66° ESE 04:45:55 10° NNE
Cosmos 1666 3.6 04:38:05 10° NNW 04:41:24 28° W 04:44:41 10° SSW
ATLAS CENTAUR R/B 3.1 04:31:48 10° WNW 04:41:41 69° NNE 04:45:30 10° ESE
ATLAS 2AS CENTAUR R/B 2.9 04:34:48 10° NW 04:42:25 83° SW 04:49:24 10° SE
Cosmos 1975 4.3 04:41:45 10° N 04:45:39 44° ENE 04:49:30 10° SSE
